Location: *
(47.7167°N, 1.7333°W)
Time: 13:18:30
(UTC+00:00)

Terra - Pass Details

Date: 09 April 2020
Orbit: 701 x 703 km, 98.2° (Epoch: 03 June)

Event Time Altitude Azimuth Distance (km) Brightness Sun altitude
Exits shadow 22:08:19 64° 323° (NW) 781 2.1 -28.3°
Drops below altitude 10° 22:12:26 10° 344° (NNW) 2,183 5.2 -28.7°
Sets 22:14:43 0° 346° (NNW) 3,106 6.2 -28.9°
